TimeCST,TemperatureF,Dew PointF,Humidity,Sea Level PressureIn,VisibilityMPH,Wind Direction,Wind SpeedMPH,Gust SpeedMPH,PrecipitationIn,Events,Conditions,WindDirDegrees,DateUTC
12:03 AM,41.0,37.4,87,29.90,4.0,SE,16.1,-,0.01,Rain,Light Rain,140,2013-03-09 06:03:00
12:35 AM,41.0,37.4,87,29.89,2.0,SE,12.7,-,0.04,Rain,Rain,140,2013-03-09 06:35:00
12:42 AM,41.0,37.4,87,29.89,1.5,SE,12.7,-,0.06,Rain,Rain,140,2013-03-09 06:42:00
12:54 AM,41.0,37.9,89,29.88,2.0,SE,12.7,-,0.07,Rain,Light Rain,140,2013-03-09 06:54:00
1:23 AM,41.0,37.4,87,29.88,3.0,SE,13.8,-,0.04,Rain,Light Rain,140,2013-03-09 07:23:00
1:32 AM,41.0,37.4,87,29.88,2.5,SSE,15.0,-,0.04,Rain,Light Rain,150,2013-03-09 07:32:00
1:45 AM,41.0,37.4,87,29.87,2.5,SE,16.1,-,0.04,Rain,Light Rain,140,2013-03-09 07:45:00
1:54 AM,41.0,37.9,89,29.86,2.5,SE,17.3,-,0.05,Rain,Light Rain,130,2013-03-09 07:54:00
2:38 AM,41.0,39.2,93,29.85,1.2,SSE,12.7,27.6,0.11,Rain,Heavy Rain,150,2013-03-09 08:38:00
2:47 AM,41.0,39.2,93,29.85,2.0,SSE,13.8,-,0.12,Rain,Light Rain,160,2013-03-09 08:47:00
2:54 AM,41.0,39.0,93,29.84,2.5,SSE,13.8,-,0.12,Rain,Light Rain,150,2013-03-09 08:54:00
3:18 AM,41.0,39.2,93,29.83,2.0,SE,12.7,-,0.01,Rain,Light Rain,140,2013-03-09 09:18:00
3:54 AM,41.0,39.0,93,29.81,2.5,SSE,15.0,-,0.02,Rain,Light Rain,150,2013-03-09 09:54:00
4:11 AM,41.0,39.2,93,29.81,2.5,SE,11.5,-,0.02,Rain,Light Rain,140,2013-03-09 10:11:00
4:24 AM,41.0,39.2,93,29.80,2.5,SE,9.2,-,0.02,Rain,Light Rain,130,2013-03-09 10:24:00
4:29 AM,41.0,39.2,93,29.80,2.5,SE,11.5,-,0.02,Rain,Light Rain,130,2013-03-09 10:29:00
4:51 AM,41.0,39.2,93,29.78,1.5,SE,10.4,-,0.06,Rain,Rain,140,2013-03-09 10:51:00
4:54 AM,41.0,39.0,93,29.78,1.2,SE,8.1,-,0.07,Rain,Rain,140,2013-03-09 10:54:00
5:07 AM,41.0,39.2,93,29.78,2.0,SSE,11.5,-,0.01,Rain-Thunderstorm,Light Rain,150,2013-03-09 11:07:00
5:22 AM,42.8,39.2,87,29.78,1.2,SSE,11.5,-,0.07,Rain-Thunderstorm,Heavy Thunderstorms and Rain,160,2013-03-09 11:22:00
5:30 AM,42.8,39.2,87,29.77,2.0,SE,10.4,-,0.07,Rain-Thunderstorm,Light Thunderstorms and Rain,130,2013-03-09 11:30:00
5:41 AM,42.8,39.2,87,29.77,2.0,SSE,15.0,-,0.08,Rain,Light Rain,150,2013-03-09 11:41:00
5:54 AM,42.1,39.9,92,29.77,3.0,SE,16.1,-,0.08,Rain,Light Rain,140,2013-03-09 11:54:00
6:54 AM,42.1,39.0,89,29.74,3.0,SE,16.1,-,0.00,,Overcast,140,2013-03-09 12:54:00
7:32 AM,42.8,39.2,87,29.74,2.0,SE,16.1,-,N/A,,Overcast,140,2013-03-09 13:32:00
7:54 AM,42.1,39.0,89,29.73,2.0,SE,13.8,-,N/A,,Overcast,130,2013-03-09 13:54:00
8:54 AM,43.0,39.9,89,29.70,2.5,SE,15.0,-,0.00,Rain,Light Rain,140,2013-03-09 14:54:00
9:54 AM,44.1,39.9,85,29.69,2.5,SSE,17.3,-,0.00,,Overcast,150,2013-03-09 15:54:00
10:54 AM,46.0,41.0,83,29.68,2.5,SE,11.5,-,0.00,,Haze,130,2013-03-09 16:54:00
11:54 AM,46.9,43.0,86,29.66,2.5,ESE,13.8,-,N/A,,Overcast,120,2013-03-09 17:54:00
12:17 PM,46.4,42.8,87,29.64,2.5,ESE,13.8,-,N/A,,Overcast,120,2013-03-09 18:17:00
12:54 PM,48.0,44.1,86,29.63,2.0,SE,13.8,-,N/A,,Overcast,130,2013-03-09 18:54:00
1:35 PM,48.2,44.6,87,29.61,1.8,ESE,10.4,-,N/A,,Overcast,120,2013-03-09 19:35:00
1:54 PM,48.9,46.0,90,29.61,1.8,SE,11.5,-,N/A,,Overcast,130,2013-03-09 19:54:00
2:20 PM,48.2,46.4,93,29.60,1.5,ESE,9.2,-,N/A,,Overcast,120,2013-03-09 20:20:00
2:54 PM,48.9,46.0,90,29.60,1.5,East,5.8,-,N/A,,Overcast,100,2013-03-09 20:54:00
3:22 PM,48.2,46.4,93,29.62,1.2,ESE,6.9,-,N/A,,Overcast,110,2013-03-09 21:22:00
3:54 PM,48.9,46.0,90,29.60,1.2,East,9.2,-,0.00,Rain,Light Rain,100,2013-03-09 21:54:00
4:54 PM,51.1,48.0,89,29.58,1.8,ESE,6.9,-,0.00,,Scattered Clouds,120,2013-03-09 22:54:00
5:06 PM,51.8,48.2,88,29.57,2.0,ESE,9.2,-,N/A,,Mostly Cloudy,120,2013-03-09 23:06:00
5:28 PM,51.8,48.2,88,29.58,2.0,ESE,11.5,-,N/A,,Mostly Cloudy,120,2013-03-09 23:28:00
5:54 PM,51.1,48.0,89,29.60,2.0,East,4.6,-,N/A,,Overcast,100,2013-03-09 23:54:00
6:02 PM,51.8,48.2,88,29.61,1.8,Calm,Calm,-,N/A,,Overcast,0,2013-03-10 00:02:00
6:21 PM,50.0,46.4,87,29.62,2.5,Calm,Calm,-,N/A,,Overcast,0,2013-03-10 00:21:00
6:36 PM,46.4,44.6,93,29.64,1.8,NW,21.9,25.3,N/A,,Overcast,320,2013-03-10 00:36:00
6:45 PM,44.6,42.8,93,29.64,1.5,NNW,18.4,28.8,N/A,,Overcast,330,2013-03-10 00:45:00
6:54 PM,44.1,41.0,89,29.65,2.5,NNW,17.3,24.2,N/A,,Overcast,340,2013-03-10 00:54:00
7:02 PM,42.8,39.2,87,29.66,4.0,NNW,21.9,-,N/A,,Overcast,330,2013-03-10 01:02:00
7:54 PM,41.0,37.9,89,29.68,4.0,North,19.6,24.2,N/A,,Overcast,350,2013-03-10 01:54:00
8:21 PM,39.2,37.4,93,29.70,2.5,NNW,20.7,26.5,0.01,Rain,Light Rain,340,2013-03-10 02:21:00
8:35 PM,39.2,37.4,93,29.71,1.5,NNW,19.6,-,0.01,Rain,Light Rain,330,2013-03-10 02:35:00
8:54 PM,37.9,36.0,93,29.72,1.0,NNW,23.0,28.8,0.01,Snow,Light Snow,340,2013-03-10 02:54:00
9:38 PM,37.4,35.6,93,29.73,3.0,North,21.9,28.8,0.01,Rain,Light Rain,350,2013-03-10 03:38:00
9:54 PM,37.0,34.0,89,29.75,6.0,North,25.3,-,0.01,,Overcast,350,2013-03-10 03:54:00
10:13 PM,37.4,33.8,87,29.74,6.0,North,26.5,36.8,0.00,,Overcast,350,2013-03-10 04:13:00
10:21 PM,37.4,33.8,87,29.76,7.0,North,23.0,31.1,0.00,,Overcast,350,2013-03-10 04:21:00
10:43 PM,35.6,33.8,93,29.76,2.0,North,27.6,33.4,0.03,Rain,Heavy Rain,350,2013-03-10 04:43:00
10:50 PM,35.6,33.8,93,29.75,1.8,North,27.6,33.4,0.05,Snow,Light Snow,350,2013-03-10 04:50:00
10:54 PM,36.0,33.1,89,29.75,1.8,North,25.3,34.5,0.06,Snow,Light Snow,350,2013-03-10 04:54:00
11:05 PM,35.6,33.8,93,29.74,2.0,North,31.1,38.0,0.01,Snow,Light Snow,350,2013-03-10 05:05:00
11:40 PM,35.6,32.0,87,29.75,4.0,North,26.5,35.7,0.03,Rain,Light Rain,350,2013-03-10 05:40:00
11:54 PM,35.1,32.0,89,29.81,5.0,North,18.4,26.5,0.03,Rain,Light Rain,350,2013-03-10 05:54:00